W5HRH Weather Reports


Display with metric or nautical units.
time (UTC)temp
F
wind
direction
speed
MPH
gust
MPH
rain 1hr
in
rain 24hr
in
rain mn
in
humidity
%
barometer
mb
20260508222600 73 94 1.0 6.0 0.00 0.03 0.03 92 1011.0
20260508222059 73 94 1.0 6.0 0.00 0.03 0.03 92 1011.0
20260508221559 73 42 1.0 4.0 0.00 0.03 0.03 92 1011.1
20260508221056 73 78 1.0 4.0 0.00 0.03 0.03 92 1011.0
20260508220556 73 129 0.0 4.0 0.00 0.03 0.03 92 1011.2
20260508220056 73 125 0.0 7.0 0.00 0.03 0.03 92 1011.2
20260508215553 73 81 1.0 7.0 0.00 0.03 0.03 92 1011.2
20260508215051 73 105 0.0 4.0 0.00 0.03 0.03 92 1011.2
20260508214619 73 117 1.0 4.0 0.00 0.03 0.03 93 1011.1
20260508214052 72 117 0.0 3.0 0.00 0.03 0.03 93 1011.2
20260508213546 72 90 0.0 6.0 0.00 0.03 0.03 93 1011.3
20260508213050 72 56 1.0 6.0 0.00 0.03 0.03 93 1011.4
20260508212543 72 154 0.0 3.0 0.00 0.03 0.03 93 1011.5
20260508212046 72 125 0.0 3.0 0.00 0.03 0.03 93 1011.5
20260508211543 72 103 0.0 3.0 0.00 0.03 0.03 93 1011.7
20260508211039 72 99 1.0 3.0 0.00 0.03 0.03 93 1011.6
20260508210541 72 111 0.0 3.0 0.00 0.03 0.03 93 1011.5
20260508210037 72 117 1.0 3.0 0.00 0.03 0.03 93 1011.5
20260508205535 72 109 0.0 3.0 0.00 0.03 0.03 93 1011.5
20260508205034 72 146 0.0 3.0 0.00 0.03 0.03 93 1011.5
20260508204533 72 142 0.0 3.0 0.00 0.03 0.03 94 1011.6
20260508204030 72 85 0.0 6.0 0.00 0.03 0.03 94 1011.8
20260508203529 72 151 2.0 5.0 0.01 0.03 0.03 94 1011.6
20260508203128 72 105 2.0 6.0 0.01 0.03 0.03 95 1011.7
20260508202526 72 129 2.0 6.0 0.01 0.03 0.03 95 1011.6
20260508202025 71 63 0.0 3.0 0.01 0.03 0.03 95 1011.8
20260508201524 71 93 0.0 3.0 0.01 0.03 0.03 95 1011.6
20260508201022 71 155 0.0 2.0 0.02 0.03 0.03 95 1012.0
20260508200522 71 76 0.0 6.0 0.03 0.03 0.03 95 1012.2
20260508200021 71 78 2.0 6.0 0.03 0.03 0.03 95 1012.1
20260508195521 71 119 1.0 4.0 0.03 0.03 0.03 95 1012.1
20260508195020 70 100 0.0 3.0 0.03 0.03 0.03 94 1012.3
20260508194519 70 69 0.0 0.0 0.03 0.03 0.03 95 1012.5
20260508194018 70 340 0.0 3.0 0.03 0.03 0.03 94 1012.7
20260508193520 70 165 0.0 3.0 0.02 0.02 0.02 94 1012.8
20260508193019 70 209 0.0 3.0 0.02 0.02 0.02 95 1012.6
20260508192518 70 140 0.0 3.0 0.02 0.02 0.02 94 1012.7
20260508192018 70 140 1.0 4.0 0.02 0.02 0.02 94 1012.7
20260508191533 69 82 1.0 4.0 0.02 0.02 0.02 94 1012.7
20260508191017 69 167 2.0 5.0 0.01 0.01 0.01 94 1012.8
20260508190517 70 138 1.0 4.0 0.00 0.00 0.00 94 1012.7
20260508190026 69 127 0.0 4.0 0.00 0.00 0.00 94 1012.7
20260508185516 69 99 1.0 6.0 0.00 0.00 0.00 93 1012.7
20260508185015 69 130 1.0 6.0 0.00 0.00 0.00 93 1012.7
20260508184518 69 71 1.0 6.0 0.00 0.00 0.00 93 1012.7
20260508184014 69 127 1.0 5.0 0.00 0.00 0.00 93 1012.7
20260508183516 69 101 1.0 6.0 0.00 0.00 0.00 93 1012.8
20260508183013 69 148 1.0 6.0 0.00 0.00 0.00 93 1012.7
20260508182514 69 163 2.0 6.0 0.00 0.00 0.00 93 1012.8
20260508182012 69 144 0.0 4.0 0.00 0.00 0.00 93 1013.0
20260508181511 69 149 0.0 4.0 0.00 0.00 0.00 93 1013.1
20260508181010 69 94 2.0 4.0 0.00 0.00 0.00 93 1013.2
20260508180511 69 67 1.0 3.0 0.00 0.00 0.00 93 1013.3
20260508180009 69 106 0.0 5.0 0.00 0.00 0.00 93 1013.3
20260508175512 69 37 1.0 5.0 0.00 0.00 0.00 93 1013.5
20260508175009 69 70 2.0 6.0 0.00 0.00 0.00 92 1013.4
20260508174508 69 57 1.0 8.0 0.00 0.00 0.00 93 1013.5
20260508174008 69 78 1.0 8.0 0.00 0.00 0.00 93 1013.4
20260508173508 69 166 1.0 4.0 0.00 0.00 0.00 92 1013.3
20260508173006 69 135 1.0 4.0 0.00 0.00 0.00 92 1013.5
20260508172506 69 108 0.0 8.0 0.00 0.00 0.00 92 1013.5
20260508172010 69 81 1.0 8.0 0.00 0.00 0.00 92 1013.5
20260508171505 69 106 1.0 4.0 0.00 0.00 0.00 91 1013.6
20260508171005 69 62 0.0 4.0 0.00 0.00 0.00 91 1014.1
20260508170505 69 79 1.0 4.0 0.00 0.00 0.00 91 1014.1
20260508170008 69 109 0.0 7.0 0.00 0.00 0.00 90 1014.0
20260508165505 69 90 1.0 7.0 0.00 0.00 0.00 90 1014.1
20260508165004 69 35 1.0 7.0 0.00 0.00 0.00 90 1014.3
20260508164504 69 92 2.0 10.0 0.00 0.00 0.00 90 1013.5
20260508164003 69 104 3.0 10.0 0.00 0.00 0.00 89 1013.9
20260508163502 69 91 0.0 8.0 0.00 0.00 0.00 89 1014.2
20260508163003 69 123 1.0 8.0 0.00 0.00 0.00 89 1014.0
20260508162503 69 88 1.0 8.0 0.00 0.00 0.00 89 1014.1
20260508162004 69 96 2.0 9.0 0.00 0.00 0.00 88 1014.3
20260508161503 69 57 1.0 9.0 0.00 0.00 0.00 88 1014.5
20260508161001 69 59 1.0 7.0 0.00 0.00 0.00 88 1014.8
20260508160501 69 108 1.0 5.0 0.00 0.00 0.00 88 1014.9
20260508160003 69 89 1.0 5.0 0.00 0.00 0.00 88 1014.8
20260508155501 69 67 0.0 3.0 0.00 0.00 0.00 88 1014.9
20260508155101 68 88 0.0 4.0 0.00 0.00 0.00 88 1015.0
20260508154606 68 118 0.0 4.0 0.00 0.00 0.00 88 1014.9
20260508154100 68 57 0.0 6.0 0.00 0.00 0.00 88 1014.8
20260508153600 68 12 2.0 6.0 0.00 0.00 0.00 88 1014.8
20260508153100 68 15 1.0 7.0 0.00 0.00 0.00 88 1015.0
20260508152559 68 29 1.0 9.0 0.00 0.00 0.00 87 1014.9
20260508152059 68 68 0.0 6.0 0.00 0.00 0.00 87 1015.0
20260508151602 68 18 1.0 6.0 0.00 0.00 0.00 87 1014.8
20260508151059 68 75 2.0 9.0 0.00 0.00 0.00 87 1014.8
20260508150557 68 34 3.0 9.0 0.00 0.00 0.00 86 1014.5
20260508150057 69 27 2.0 9.0 0.00 0.00 0.00 86 1014.9
20260508145600 69 26 1.0 9.0 0.00 0.00 0.00 86 1014.9
20260508145058 69 350 1.0 5.0 0.00 0.00 0.00 86 1014.8
20260508144556 69 140 1.0 10.0 0.00 0.00 0.00 85 1014.5
20260508144156 69 105 3.0 10.0 0.00 0.00 0.00 85 1014.5
20260508143556 69 55 2.0 9.0 0.00 0.00 0.00 85 1014.7
20260508143104 69 35 3.0 9.0 0.00 0.00 0.00 85 1014.8
20260508142558 69 40 2.0 5.0 0.00 0.00 0.00 85 1014.7
20260508142055 69 49 0.0 5.0 0.00 0.00 0.00 85 1014.9
20260508141555 69 9 1.0 4.0 0.00 0.00 0.00 85 1015.0
20260508141054 69 53 1.0 4.0 0.00 0.00 0.00 85 1014.8
20260508140555 69 99 0.0 3.0 0.00 0.00 0.00 85 1014.7
20260508140104 69 92 0.0 2.0 0.00 0.00 0.00 86 1014.7
20260508135554 69 92 0.0 5.0 0.00 0.00 0.00 86 1014.6
20260508135052 69 140 0.0 5.0 0.00 0.00 0.00 86 1014.6
20260508134602 69 124 0.0 3.0 0.00 0.00 0.00 86 1014.4
20260508134052 69 182 0.0 2.0 0.00 0.00 0.00 86 1014.5
20260508133552 69 91 0.0 2.0 0.00 0.00 0.00 87 1014.6
20260508133054 68 92 0.0 1.0 0.00 0.00 0.00 87 1014.6
20260508132552 68 86 0.0 1.0 0.00 0.00 0.00 87 1014.7
20260508132052 68 84 0.0 2.0 0.00 0.00 0.00 86 1014.7
20260508131552 68 84 0.0 2.0 0.00 0.00 0.00 86 1014.7
20260508131052 68 84 0.0 2.0 0.00 0.00 0.00 86 1014.8
20260508130552 68 67 0.0 2.0 0.00 0.00 0.00 86 1014.8
20260508130052 68 68 0.0 2.0 0.00 0.00 0.00 86 1014.8
20260508125552 68 105 0.0 4.0 0.00 0.00 0.00 86 1014.8
20260508125053 68 70 1.0 4.0 0.00 0.00 0.00 86 1014.8
20260508124550 68 46 1.0 4.0 0.00 0.00 0.00 86 1014.9
20260508124051 68 13 1.0 6.0 0.00 0.00 0.00 87 1014.8
20260508123550 68 360 1.0 6.0 0.00 0.00 0.00 87 1014.8
20260508123051 68 42 1.0 6.0 0.00 0.00 0.00 87 1014.6
20260508122550 68 360 2.0 5.0 0.00 0.00 0.00 87 1014.5
20260508122050 68 47 1.0 5.0 0.00 0.00 0.00 87 1014.6
20260508121550 68 17 1.0 4.0 0.00 0.00 0.00 88 1014.7
20260508121050 68 69 0.0 3.0 0.00 0.00 0.00 88 1014.8
20260508120549 68 27 0.0 3.0 0.00 0.00 0.00 88 1015.0
20260508120051 68 42 0.0 3.0 0.00 0.00 0.00 88 1015.1
20260508115548 68 16 1.0 6.0 0.00 0.00 0.00 88 1015.1
20260508115048 68 42 0.0 6.0 0.00 0.00 0.00 88 1014.9
20260508114603 68 56 2.0 5.0 0.00 0.00 0.00 88 1014.9
20260508114048 68 38 2.0 5.0 0.00 0.00 0.00 88 1015.0
20260508113548 67 44 0.0 4.0 0.00 0.00 0.00 89 1015.0
20260508113047 67 32 1.0 4.0 0.00 0.00 0.00 88 1015.0
20260508112547 67 53 0.0 3.0 0.00 0.00 0.00 88 1014.8
20260508112047 67 351 0.0 3.0 0.00 0.00 0.00 88 1014.9
20260508111559 67 161 0.0 5.0 0.00 0.00 0.00 88 1014.7
20260508111047 68 94 0.0 5.0 0.00 0.00 0.00 88 1014.6
20260508110546 68 78 0.0 3.0 0.00 0.00 0.00 87 1014.6
20260508110045 68 90 0.0 6.0 0.00 0.00 0.00 87 1014.6
20260508105548 68 61 1.0 6.0 0.00 0.00 0.00 86 1014.5
20260508105044 68 86 0.0 9.0 0.00 0.00 0.00 86 1014.7
20260508104544 68 71 3.0 9.0 0.00 0.00 0.00 85 1014.7
20260508104044 68 15 2.0 6.0 0.00 0.00 0.00 85 1014.8
20260508103545 68 14 3.0 5.0 0.00 0.00 0.00 85 1014.8
20260508103042 68 355 0.0 4.0 0.00 0.00 0.00 85 1014.6
20260508102543 68 5 0.0 4.0 0.00 0.00 0.00 85 1014.5
20260508102041 68 10 0.0 4.0 0.00 0.00 0.00 85 1014.7
20260508101541 68 85 0.0 3.0 0.00 0.00 0.00 85 1014.6
20260508101043 68 71 0.0 5.0 0.00 0.00 0.00 85 1014.3
20260508100545 69 65 0.0 5.0 0.00 0.00 0.00 85 1014.5
20260508100041 69 76 1.0 5.0 0.00 0.00 0.00 85 1014.7
20260508095544 69 56 1.0 4.0 0.00 0.00 0.00 85 1014.8
20260508095040 69 360 1.0 4.0 0.00 0.00 0.00 85 1014.4
20260508094540 69 18 1.0 4.0 0.00 0.00 0.00 85 1014.7
20260508094039 69 40 1.0 4.0 0.00 0.00 0.00 85 1014.9
20260508093539 69 5 1.0 8.0 0.00 0.00 0.00 84 1014.6
20260508093039 69 101 2.0 8.0 0.00 0.00 0.00 84 1014.1
20260508092537 69 115 1.0 8.0 0.00 0.00 0.00 84 1014.1
20260508092037 69 65 2.0 6.0 0.00 0.00 0.00 83 1014.2
20260508091544 69 60 1.0 6.0 0.00 0.00 0.00 83 1014.3
20260508091038 69 99 1.0 7.0 0.00 0.00 0.00 83 1014.2
20260508090536 69 114 3.0 7.0 0.00 0.00 0.00 82 1014.1
20260508090036 69 65 2.0 7.0 0.00 0.00 0.00 82 1014.2
20260508085535 69 34 3.0 6.0 0.00 0.00 0.00 81 1014.4
20260508085037 69 65 2.0 6.0 0.00 0.00 0.00 81 1014.6
20260508084532 69 60 2.0 6.0 0.00 0.00 0.00 81 1014.8
20260508084032 70 61 1.0 5.0 0.00 0.00 0.00 81 1014.9
20260508083531 70 34 1.0 5.0 0.00 0.00 0.00 81 1014.7
20260508083031 70 64 1.0 4.0 0.00 0.00 0.00 80 1014.7
20260508082534 70 45 1.0 4.0 0.00 0.00 0.00 80 1014.7
20260508082031 70 64 2.0 4.0 0.00 0.00 0.00 80 1014.8
20260508081543 70 19 1.0 4.0 0.00 0.00 0.00 80 1014.7
20260508081030 70 5 1.0 6.0 0.00 0.00 0.00 80 1014.5
20260508080529 70 36 2.0 6.0 0.00 0.00 0.00 80 1014.5
20260508080034 70 34 2.0 5.0 0.00 0.00 0.00 80 1014.5
20260508075528 70 76 2.0 5.0 0.00 0.00 0.00 79 1014.7
20260508075026 70 11 2.0 5.0 0.00 0.00 0.00 79 1014.9
20260508074527 71 44 2.0 5.0 0.00 0.00 0.00 79 1014.9
20260508074025 71 31 1.0 4.0 0.00 0.00 0.00 79 1015.0
20260508073525 71 51 1.0 4.0 0.00 0.00 0.00 79 1015.0
20260508073024 71 30 1.0 6.0 0.00 0.00 0.00 79 1015.1
20260508072524 71 355 2.0 7.0 0.00 0.00 0.00 79 1015.0
20260508072024 71 31 1.0 4.0 0.00 0.00 0.00 79 1015.0
20260508071524 71 53 1.0 3.0 0.00 0.00 0.00 79 1014.8
20260508071023 71 80 0.0 4.0 0.00 0.00 0.00 79 1014.8
20260508070525 71 56 1.0 5.0 0.00 0.00 0.00 79 1015.0
20260508070023 71 46 2.0 5.0 0.00 0.00 0.00 79 1015.0
20260508065523 71 70 1.0 6.0 0.00 0.00 0.00 79 1014.8
20260508065021 71 75 0.0 6.0 0.00 0.00 0.00 78 1015.0
20260508064527 71 117 0.0 6.0 0.00 0.00 0.00 78 1015.0
20260508064024 71 72 1.0 6.0 0.00 0.00 0.00 78 1014.9
20260508063524 71 90 1.0 7.0 0.00 0.00 0.00 78 1015.0
20260508063021 71 80 2.0 7.0 0.00 0.00 0.00 78 1015.0
20260508062521 71 98 1.0 5.0 0.00 0.00 0.00 78 1014.9
20260508062020 71 92 2.0 5.0 0.00 0.00 0.00 78 1015.1
20260508061520 71 82 0.0 7.0 0.00 0.00 0.00 78 1014.9
20260508061019 71 96 0.0 4.0 0.00 0.00 0.00 78 1015.0
20260508060523 71 92 1.0 4.0 0.00 0.00 0.00 78 1015.3
20260508060019 71 98 0.0 4.0 0.00 0.00 0.00 78 1015.3
20260508055518 71 80 1.0 4.0 0.00 0.00 0.00 78 1015.2
20260508055018 71 92 0.0 6.0 0.00 0.00 0.00 77 1015.1
20260508054518 71 105 2.0 6.0 0.00 0.00 0.00 77 1015.0
20260508054017 71 89 1.0 6.0 0.00 0.00 0.00 77 1015.1
20260508053516 71 77 1.0 5.0 0.00 0.00 0.00 78 1015.2
20260508053016 71 56 1.0 4.0 0.00 0.00 0.00 78 1015.1
20260508052516 71 74 1.0 5.0 0.00 0.00 0.00 77 1015.1
20260508052016 72 41 3.0 6.0 0.00 0.00 0.00 77 1015.1
20260508051526 72 49 1.0 5.0 0.00 0.00 0.00 77 1015.0
20260508051014 72 61 2.0 5.0 0.00 0.00 0.00 77 1014.9
20260508050516 72 74 2.0 5.0 0.00 0.00 0.00 77 1015.1
20260508050012 72 51 2.0 5.0 0.00 0.00 0.00 77 1015.3
20260508045514 72 53 2.0 5.0 0.00 0.00 0.00 77 1015.1
20260508045011 72 70 0.0 3.0 0.00 0.00 0.00 77 1015.1
20260508044511 72 19 1.0 5.0 0.00 0.00 0.00 77 1015.3
20260508044011 72 50 2.0 5.0 0.00 0.00 0.00 76 1015.3
20260508043511 72 13 1.0 4.0 0.00 0.00 0.00 76 1015.3
20260508043018 72 48 1.0 4.0 0.00 0.00 0.00 76 1015.2
20260508042511 72 70 0.0 4.0 0.00 0.00 0.00 75 1015.4
20260508042010 72 67 1.0 5.0 0.00 0.00 0.00 75 1015.4
20260508041514 72 360 2.0 6.0 0.00 0.00 0.00 75 1015.6
20260508041010 72 65 1.0 4.0 0.00 0.00 0.00 75 1015.6
20260508040510 72 84 1.0 7.0 0.00 0.00 0.00 74 1015.2
20260508040010 72 94 3.0 7.0 0.00 0.00 0.00 74 1014.8
20260508035514 72 86 2.0 8.0 0.00 0.00 0.00 74 1014.7
20260508035009 72 123 1.0 8.0 0.00 0.00 0.00 73 1014.7
20260508034510 72 105 2.0 8.0 0.00 0.00 0.00 73 1014.9
20260508034009 72 71 2.0 8.0 0.00 0.00 0.00 73 1015.1
20260508033509 73 92 2.0 5.0 0.00 0.00 0.00 72 1015.6
20260508033009 73 41 1.0 6.0 0.00 0.00 0.00 72 1015.6
20260508032509 73 107 2.0 6.0 0.00 0.00 0.00 72 1015.7
20260508032009 73 51 2.0 6.0 0.00 0.00 0.00 72 1015.8
20260508031509 73 66 2.0 5.0 0.00 0.00 0.00 72 1016.0
20260508031008 73 24 3.0 6.0 0.00 0.00 0.00 72 1016.0
20260508030508 73 42 2.0 7.0 0.00 0.00 0.00 72 1015.9
20260508030008 74 34 2.0 5.0 0.00 0.00 0.00 72 1016.0
20260508025510 74 28 2.0 5.0 0.00 0.00 0.00 72 1015.9
20260508025009 74 51 2.0 8.0 0.00 0.00 0.00 72 1015.9
20260508024507 74 42 2.0 8.0 0.00 0.00 0.00 72 1016.0
20260508024007 74 49 2.0 6.0 0.00 0.00 0.00 73 1015.8
20260508023508 74 48 3.0 6.0 0.00 0.00 0.00 72 1015.5
20260508023006 75 55 2.0 6.0 0.00 0.00 0.00 72 1015.4
20260508022506 75 5 1.0 6.0 0.00 0.00 0.00 72 1015.4
20260508022006 75 39 2.0 8.0 0.00 0.00 0.00 72 1015.5
20260508021505 75 54 3.0 8.0 0.00 0.00 0.00 72 1015.6
20260508021009 75 22 2.0 6.0 0.00 0.00 0.00 72 1015.5
20260508020505 75 49 1.0 5.0 0.00 0.00 0.00 72 1015.6
20260508020011 75 36 1.0 5.0 0.00 0.00 0.00 72 1015.5
20260508015505 75 26 2.0 5.0 0.00 0.00 0.00 72 1015.4
20260508015005 75 74 1.0 6.0 0.00 0.00 0.00 72 1015.4
20260508014505 75 63 2.0 6.0 0.00 0.00 0.00 72 1015.4
20260508014004 75 67 1.0 5.0 0.00 0.00 0.00 72 1015.3
20260508013509 75 76 1.0 5.0 0.00 0.00 0.00 72 1015.2
20260508013006 75 122 1.0 7.0 0.00 0.00 0.00 72 1015.2
20260508012504 75 50 2.0 7.0 0.00 0.00 0.00 72 1015.4
20260508012004 75 72 2.0 5.0 0.00 0.00 0.00 72 1015.3
20260508011504 75 52 2.0 6.0 0.00 0.00 0.00 72 1015.3
20260508011003 75 103 1.0 5.0 0.00 0.00 0.00 72 1015.3
20260508010503 75 58 0.0 6.0 0.00 0.00 0.00 72 1015.5
20260508010004 75 12 2.0 9.0 0.00 0.00 0.00 72 1015.5
20260508005503 76 348 3.0 9.0 0.00 0.00 0.00 72 1015.5
20260508005001 76 36 3.0 9.0 0.00 0.00 0.00 72 1015.5
20260508004506 76 53 3.0 9.0 0.00 0.00 0.00 72 1015.3
20260508004002 76 360 3.0 9.0 0.00 0.00 0.00 71 1015.2
20260508003502 76 5 2.0 6.0 0.00 0.00 0.00 72 1015.2
20260508003001 76 47 2.0 10.0 0.00 0.00 0.00 71 1015.4
20260508002504 76 21 3.0 10.0 0.00 0.00 0.00 72 1015.3
20260508002003 77 48 2.0 5.0 0.00 0.00 0.00 71 1015.3
20260508001501 77 82 1.0 10.0 0.00 0.00 0.00 72 1015.3
20260508001001 77 37 3.0 10.0 0.00 0.00 0.00 71 1015.2
20260508000500 77 345 2.0 10.0 0.00 0.00 0.00 71 1015.4
20260508000001 77 10 4.0 10.0 0.00 0.00 0.00 71 1015.5
20260507235503 77 23 5.0 9.0 0.00 0.00 0.00 71 1015.4
20260507235101 77 35 3.0 8.0 0.00 0.00 0.00 71 1015.5
20260507234600 78 88 3.0 10.0 0.00 0.00 0.00 71 1015.5
20260507234501 78 9 3.0 10.0 0.00 0.00 0.00 71 1015.5
20260507234059 78 46 3.0 8.0 0.00 0.00 0.00 71 1015.3
20260507233600 78 71 2.0 5.0 0.00 0.00 0.00 72 1015.3
20260507233101 78 18 3.0 8.0 0.00 0.00 0.00 72 1015.2
20260507232600 78 13 3.0 8.0 0.00 0.00 0.00 72 1015.1
20260507232100 78 66 2.0 5.0 0.00 0.00 0.00 72 1015.0
20260507231600 77 87 2.0 8.0 0.00 0.00 0.00 72 1015.1
20260507231059 77 115 3.0 8.0 0.00 0.00 0.00 72 1015.1
20260507230559 78 73 3.0 8.0 0.00 0.00 0.00 72 1014.9
20260507230059 78 88 3.0 8.0 0.00 0.00 0.00 71 1015.0
20260507225559 78 84 2.0 7.0 0.00 0.00 0.00 71 1015.0
20260507225058 78 130 2.0 5.0 0.00 0.00 0.00 71 1015.0
20260507224559 78 108 1.0 8.0 0.00 0.00 0.00 71 1014.8
20260507224057 78 35 2.0 8.0 0.00 0.00 0.00 71 1015.4
20260507223600 77 21 2.0 6.0 0.00 0.00 0.00 72 1014.8
20260507223059 77 107 2.0 6.0 0.00 0.00 0.00 72 1014.7